weather.gov     
National Weather Service

Terminal Aerodrome Forecast
NWS Homepage
This page is being discontinued on March 12, 2014.
The same data is available at this site. Please update your bookmarks.
Thank you, and we apologize for the inconvenience.
Please send an email to SR-SRH.Webmaster@noaa.gov with any concerns.


Current Version
Previous Version:    01  02  03  04  05  06  07  08  09  10  11  12  13  14  15  16  17  18  19  20  21  22  23  24  25  26  27  28  29  30  
   31  32  33  34  35  36  37  38  39  40  41  42  43  44  45  46  47  48  49  50  51  
[Printable]
055
FTUS41 KALY 010700 AAA
TAFPSF
TAF AMD
KPSF 010707Z 0107/0206 VRB03KT P6SM VCSH BKN018
      TEMPO 0107/0110 SCT018
     FM011700 30005KT P6SM BKN035 BKN200
     FM012200 30003KT P6SM VCSH BKN020 OVC080
     FM020400 VRB03KT 3SM -SN BR BKN015 OVC025=


U.S. Dept. of Commerce
NOAA National Weather Service
1325 East West Highway
Silver Spring, MD 20910
E-mail: w-nws.webmaster@noaa.gov
Page last modified: May 16, 2007
NATIONAL WEATHER SERVICE: for Safety, for Work, for Fun - FOR LIFE